Theta_e
347 352 351 350 350 351 348 348 347 346 346 347 345 343 342 341 330 328 335 333 340 340 340 339 338 338 338 338 338 337 337 337 336
352 351 350 349 349 349 346 345 344 344 343 344 344 343 341 335 327 328 333 335 340 339 339 338 338 337 337 337 337 337 337 336 336
351 350 350 349 348 348 345 343 343 342 343 344 346 343 338 332 325 329 333 341 339 339 338 337 337 337 336 336 336 336 336 335 335
351 350 351 349 349 349 347 343 342 341 344 347 345 340 336 328 325 330 334 342 340 339 338 337 336 336 335 335 334 334 333 333 333
347 346 348 349 348 346 347 345 342 342 343 346 342 337 333 324 323 327 334 343 341 339 338 337 336 335 334 334 333 332 331 331 331
343 341 341 346 346 345 346 346 343 341 339 342 339 334 326 323 322 327 341 342 341 340 339 337 336 336 334 334 333 332 331 330 330
343 339 338 342 343 343 345 346 342 339 333 333 336 328 327 326 324 331 342 342 341 341 339 338 337 337 336 335 334 334 333 331 330
341 339 337 337 335 338 340 339 337 333 331 329 333 330 327 326 326 332 340 341 340 342 341 340 339 338 338 337 336 336 335 334 333
341 338 337 337 336 334 334 334 333 333 330 329 329 330 327 326 327 330 335 340 340 341 342 341 340 339 339 339 339 338 338 337 335
337 338 339 338 338 336 334 332 329 330 330 328 326 325 325 326 326 326 330 336 340 340 341 342 342 341 341 341 340 340 340 340 339
337 336 337 337 337 337 336 334 331 326 326 325 325 325 325 324 324 325 327 333 336 340 340 341 343 344 343 343 342 343 343 341 341
335 335 335 337 338 337 335 335 335 328 324 323 325 325 323 322 321 323 325 329 331 335 338 339 340 342 344 343 343 344 343 342 342
329 333 333 334 337 336 334 333 331 330 325 323 324 325 326 325 324 322 323 325 328 330 336 338 341 341 341 342 343 344 342 342 341
327 326 329 333 332 331 333 333 332 329 329 328 327 327 326 326 326 324 324 323 325 327 329 331 334 337 341 341 342 342 343 342 341
326 327 327 328 329 329 329 328 333 330 330 331 331 330 330 327 326 326 326 324 325 325 327 327 327 329 335 339 340 342 343 341 341
325 326 326 327 326 328 330 329 329 329 328 325 326 329 330 329 328 328 326 325 325 325 327 328 329 328 330 333 337 339 341 341 340
325 324 324 325 325 326 326 326 327 326 328 325 321 318 322 327 328 328 326 324 324 324 326 328 329 329 329 327 330 334 339 338 340
325 325 325 324 324 323 323 324 324 322 324 327 322 316 314 318 325 325 325 324 323 323 324 325 328 329 328 328 327 327 332 337 338
325 325 325 325 324 323 324 326 325 325 323 323 327 324 319 313 311 321 324 325 324 323 323 325 327 328 327 325 324 324 327 334 336
326 325 324 324 324 324 325 325 324 326 325 323 322 323 324 323 318 314 315 320 322 323 324 325 326 326 327 327 326 324 328 332 335
Wind_Speed
7 5 5 7 9 9 10 9 8 8 5 8 7 2 5 8 6 5 8 7 7 7 8 8 8 8 8 8 8 9 9 9 9
5 7 7 8 8 9 9 8 8 6 2 2 7 3 5 6 5 5 6 6 6 6 6 6 6 6 7 7 7 7 7 7 8
6 7 7 7 8 9 9 7 7 5 5 6 7 3 6 7 5 4 5 8 5 5 5 5 5 5 5 5 5 5 6 6 6
7 8 9 10 9 8 10 8 6 4 3 7 8 4 5 6 4 4 4 9 5 4 4 3 3 3 3 3 3 3 4 4 4
9 8 10 11 10 9 9 9 7 5 1 6 6 4 6 6 5 3 5 10 7 5 4 3 3 2 2 1 1 1 2 2 2
8 8 9 11 11 10 9 9 7 6 4 6 6 5 4 6 4 3 12 11 8 6 5 4 4 4 3 3 3 3 2 1 0
9 10 11 11 11 10 9 9 9 7 4 4 7 3 5 5 5 4 12 11 10 9 7 6 6 6 6 6 6 6 5 4 3
4 3 5 5 6 4 5 5 4 6 5 4 5 6 6 4 4 7 13 13 11 11 11 10 10 9 9 9 9 8 8 8 7
4 3 4 5 5 6 6 5 6 6 7 8 7 9 6 4 2 6 14 13 13 13 13 13 12 12 12 11 11 11 11 10 9
3 4 4 4 4 6 6 6 6 8 7 7 7 6 6 6 3 3 13 13 13 14 14 14 14 14 14 14 14 13 13 13 12
5 4 4 4 4 4 4 4 8 7 7 9 6 6 5 5 6 4 6 13 13 14 15 15 16 16 16 16 15 15 15 14 15
5 5 4 4 4 5 4 6 5 4 4 6 5 5 7 6 7 5 5 7 13 15 17 17 17 16 16 14 15 16 14 14 14
4 4 4 5 4 4 4 4 4 4 4 4 5 7 5 6 7 6 5 5 6 11 16 17 17 17 18 17 17 15 11 12 12
4 3 3 6 4 4 3 4 4 3 4 5 5 6 5 5 4 6 7 6 6 6 12 16 16 16 17 19 18 17 13 11 12
5 4 4 3 3 4 3 4 4 4 4 6 5 4 5 4 5 8 7 7 8 8 8 6 7 13 16 19 21 19 16 13 13
5 4 4 4 4 5 6 4 5 4 4 3 5 7 7 6 6 7 4 5 4 6 6 5 5 7 18 19 21 21 20 17 15
3 3 3 4 3 4 5 5 4 4 5 5 4 5 4 8 12 10 10 11 10 11 11 11 12 10 7 9 17 19 20 21 20
4 4 4 4 3 3 5 6 7 9 5 10 6 2 5 3 6 14 13 14 10 9 10 13 12 11 10 11 12 19 20 20 22
1 2 4 5 4 5 6 6 8 7 9 3 9 11 4 4 3 4 11 12 12 11 9 10 11 11 7 8 10 13 16 18 20
5 4 5 5 4 5 8 9 8 8 9 9 5 8 10 11 10 9 4 4 8 9 10 10 8 8 7 5 6 8 10 14 18
Wind_Direction
192 199 156 134 127 135 125 116 102 90 100 122 125 172 284 312 302 57 64 83 107 96 91 90 88 87 85 82 79 77 76 73 71
171 151 159 152 140 142 142 137 121 120 133 161 143 198 290 294 296 143 111 103 113 106 98 95 96 93 90 85 81 80 79 73 69
186 159 174 171 165 163 159 152 145 159 182 211 154 183 289 313 302 110 106 128 131 114 107 103 105 104 96 90 85 81 80 74 67
208 180 182 181 183 168 159 162 169 179 215 217 147 174 281 298 301 139 139 137 152 140 135 128 125 123 114 109 103 97 83 72 65
220 207 193 194 188 177 168 171 181 188 199 146 162 195 260 265 276 76 138 151 164 172 172 170 169 162 154 165 161 138 106 79 62
211 205 205 191 188 181 175 178 188 193 193 181 187 200 247 257 237 148 156 161 177 194 199 202 202 208 212 227 233 235 227 216 281
194 195 198 192 191 192 188 185 188 195 219 209 198 200 237 256 229 140 162 167 186 200 209 220 226 225 228 236 241 245 250 248 251
187 145 185 175 181 180 190 191 197 202 217 223 195 205 225 241 229 162 170 175 197 210 205 213 223 229 234 239 245 248 248 250 249
162 176 183 185 179 195 194 196 192 222 224 239 209 205 205 229 229 174 177 182 197 219 223 218 223 230 236 240 244 247 249 250 252
166 178 194 199 198 191 206 192 195 204 222 235 243 236 216 210 233 163 177 190 199 216 233 236 231 235 239 243 244 247 248 247 247
175 176 196 213 216 224 211 227 206 205 206 219 224 230 237 235 213 204 194 192 202 210 226 238 246 244 242 246 246 245 245 249 245
168 170 197 198 203 218 230 243 270 219 207 216 225 230 226 233 235 218 186 194 201 210 221 229 239 248 255 254 247 242 247 249 241
238 175 194 213 193 196 211 222 241 249 213 237 231 226 212 221 227 221 209 183 197 214 220 224 229 234 241 248 251 256 248 234 233
215 239 209 207 201 196 195 214 201 216 227 229 240 252 236 224 234 228 215 205 195 188 210 217 224 230 238 244 246 247 249 228 226
207 210 223 254 185 210 208 220 223 205 228 251 248 261 248 242 233 232 226 214 212 204 191 194 220 233 237 240 246 250 248 238 219
210 211 218 221 216 205 196 207 229 243 204 249 257 259 244 255 252 258 262 236 237 212 206 189 194 208 225 230 237 239 243 241 237
225 237 253 246 240 228 205 210 242 240 196 211 244 254 241 234 233 238 248 247 244 233 218 217 216 212 202 208 230 237 238 242 244
208 244 258 267 259 252 259 237 222 238 224 210 204 229 235 213 207 228 229 230 217 223 224 224 219 214 212 207 211 217 221 227 236
166 254 259 249 234 241 239 238 235 225 236 209 224 238 221 229 284 237 223 224 227 222 224 226 224 222 221 214 209 210 216 221 233
50 32 352 314 282 256 239 241 241 237 242 235 218 227 239 247 247 248 247 240 220 225 226 227 221 206 201 201 209 189 202 208 230